Погода в Ручьях

Россия / Тверская область     56°35′32″N   36°58′14″E
темп.,
°C
ветер,
м/с
пор.,
м/с
влажн.,
%
обл.,
%
осадки,
мм/ч
давл.,
гПа
погр.,
м
29 ноября, пн
пн2900:000ю2594100 0.0 1009123
03:000юв1298100 0.5 100986
06:00+1в3893100 0.7 1006335
09:00+2юв31194100 1.6 1005440
12:00+3вюв4109375 0.3 1003387
15:00+3вюв41196100 0.5 1000431
18:00+3вюв41298100 0.3 997367
21:00+3в51198100 0.3 992499
30 ноября, вт
вт3000:00+3в51298100 0.1 987501
03:00+4всв51497100 4.4 979533
06:00+4всв51296100 2.6 972664
09:00+4св1299100 4.3 96849
12:00+3юз81596100 1.8 970976
15:000юз91690100 2.8 971891
18:00−2юз81690100 0.8 973930
21:00−3зюз91690100 2.0 976944
1 декабря, ср
ср100:00−4зюз81589100 0.9 980978
03:00−4зюз71290100 1.6 983994
06:00−4зюз71289100 0.9 9851113
09:00−4зюз51091100 1.8 987958
12:00−4зюз5988100 1.2 989904
15:00−5з5882100 1.6 989878
18:00−5з51085100 0.1 992828
21:00−6з51084100 0.1 993712
2 декабря, чт
чт200:00−8з5118993 0.0 996556
03:00−8зюз4109189 0.0 997395
06:00−8зюз389089 0.0 998326
09:00−7ююз2789100 0.0 999246
12:00−4ю41080100 0.0 998422
15:00−4ююв51294100 0.6 996663
18:00−3ю51293100 1.1 995627
21:00−1ююз51395100 2.0 994681
3 декабря, пт
пт300:00+2юз51297100 0.1 995790
03:00+2юз51287100 0.3 996819
06:00+1юз51392100 0.0 997686
09:00+1юз51288100 0.1 999593
12:00+2юз51183100 0.0 1000739
15:00+1ю4986100 0.0 999442
18:00+1ю3994100 0.1 999391
21:000ю3695100 0.2 998274